When you browse on this site, cookies collect data to enhance your experience and personalize the content and advertising you see.
Visit our Privacy Policy to learn more. By continuing to use the site, you agree to this use of cookies and data.
  • In Portugal
  • List of Countries
  • For 7 days
  • Water Temperature
  • Satellite Maps
  • Weather Map
  • Weather Widgets
  • user-avatar
    Login

    Hourly Weather Koryzhi

    Today, 18 February, Monday

    Time Temperature Precipitation Wind Pressure Humidity
    00:00 -4°C° 0 mm 3 mps 758 mmHg 87%
    01:00 -5°C° 0 mm 3 mps 758 mmHg 88%
    02:00 -5°C° 0 mm 2 mps 758 mmHg 92%
    03:00 -5°C° 0 mm 2 mps 759 mmHg 93%
    04:00 -6°C° 0 mm 2 mps 759 mmHg 93%
    05:00 -4°C° 0 mm 1 mps 760 mmHg 93%
    06:00 -4°C° 0 mm 1 mps 760 mmHg 92%
    07:00 -4°C° 0 mm 1 mps 760 mmHg 92%
    08:00 -4°C° 0 mm 1 mps 761 mmHg 89%
    09:00 -3°C° 0 mm 1 mps 761 mmHg 84%
    10:00 -2°C° 0 mm 1 mps 761 mmHg 79%
    11:00 -2°C° 0 mm 0 mps 761 mmHg 73%
    12:00 0°C° 0 mm 1 mps 761 mmHg 72%
    13:00 0°C° 0 mm 1 mps 761 mmHg 71%
    14:00 +1°C° 0 mm 1 mps 760 mmHg 69%
    15:00 -1°C° 0 mm 2 mps 760 mmHg 73%
    16:00 -2°C° 0 mm 2 mps 759 mmHg 77%
    17:00 -3°C° 0 mm 2 mps 759 mmHg 81%
    18:00 -4°C° 0 mm 3 mps 758 mmHg 79%
    19:00 -4°C° 0 mm 3 mps 758 mmHg 77%
    20:00 -4°C° 0 mm 3 mps 758 mmHg 75%
    21:00 -4°C° 0 mm 4 mps 757 mmHg 75%
    22:00 -4°C° 0 mm 4 mps 757 mmHg 76%
    23:00 -4°C° 0 mm 4 mps 756 mmHg 76%

    Tomorrow, 19 February, Tuesday

    Time Temperature Precipitation Wind Pressure Humidity
    00:00 -4°C° 0 mm 5 mps 756 mmHg 78%
    01:00 -4°C° 0 mm 5 mps 755 mmHg 80%
    02:00 -4°C° 0 mm 5 mps 755 mmHg 82%
    03:00 -4°C° 0 mm 5 mps 754 mmHg 84%
    04:00 -2°C° 0 mm 5 mps 754 mmHg 86%
    05:00 -2°C° 0 mm 5 mps 753 mmHg 88%
    06:00 -2°C° 0 mm 5 mps 753 mmHg 89%
    07:00 -1°C° 0 mm 5 mps 752 mmHg 90%
    08:00 -1°C° 0 mm 4 mps 752 mmHg 90%
    09:00 -1°C° 0 mm 4 mps 751 mmHg 91%
    10:00 0°C° 0 mm 4 mps 750 mmHg 91%
    11:00 0°C° 0 mm 4 mps 750 mmHg 91%
    12:00 0°C° 0 mm 5 mps 749 mmHg 91%
    13:00 0°C° 0 mm 5 mps 749 mmHg 91%
    14:00 +1°C° 0 mm 5 mps 748 mmHg 90%
    15:00 +1°C° 0 mm 5 mps 747 mmHg 90%
    16:00 +1°C° 0 mm 5 mps 746 mmHg 89%
    17:00 +1°C° 0 mm 4 mps 746 mmHg 89%
    18:00 +1°C° 0 mm 5 mps 745 mmHg 89%
    19:00 0°C° 0 mm 5 mps 744 mmHg 89%
    20:00 0°C° 0 mm 5 mps 743 mmHg 89%
    21:00 0°C° 0.2 mm 5 mps 743 mmHg 89%
    22:00 0°C° 0.2 mm 5 mps 742 mmHg 89%
    23:00 0°C° 0.2 mm 5 mps 742 mmHg 89%

    Day after tomorrow, 20 February, Wednesday

    Time Temperature Precipitation Wind Pressure Humidity
    00:00 0°C° 0.1 mm 4 mps 742 mmHg 90%
    01:00 +1°C° 0.1 mm 4 mps 742 mmHg 92%
    02:00 +1°C° 0.1 mm 4 mps 742 mmHg 93%
    03:00 +1°C° 0.1 mm 4 mps 742 mmHg 92%
    04:00 +1°C° 0.1 mm 4 mps 741 mmHg 91%
    05:00 0°C° 0.1 mm 4 mps 741 mmHg 91%
    06:00 0°C° 0.1 mm 4 mps 741 mmHg 90%
    07:00 0°C° 0.1 mm 4 mps 741 mmHg 89%
    08:00 0°C° 0.1 mm 4 mps 741 mmHg 89%
    09:00 +1°C° 0 mm 4 mps 741 mmHg 87%
    10:00 +1°C° 0 mm 5 mps 740 mmHg 84%
    11:00 +1°C° 0 mm 5 mps 740 mmHg 82%
    12:00 +1°C° 0.2 mm 5 mps 740 mmHg 82%
    13:00 +1°C° 0.2 mm 5 mps 740 mmHg 82%
    14:00 +1°C° 0.2 mm 5 mps 740 mmHg 83%
    15:00 -1°C° 0.3 mm 6 mps 740 mmHg 81%
    16:00 -1°C° 0.3 mm 6 mps 740 mmHg 79%
    17:00 -2°C° 0.3 mm 6 mps 740 mmHg 77%
    18:00 -2°C° 0.2 mm 6 mps 741 mmHg 79%
    19:00 -3°C° 0.2 mm 6 mps 742 mmHg 82%
    20:00 -4°C° 0.2 mm 6 mps 742 mmHg 84%
    21:00 -4°C° 0.1 mm 6 mps 743 mmHg 82%
    22:00 -4°C° 0.1 mm 7 mps 744 mmHg 79%
    23:00 -4°C° 0.1 mm 7 mps 744 mmHg 77%

    21 February, Thursday

    Time Temperature Precipitation Wind Pressure Humidity
    00:00 -6°C° 0 mm 7 mps 745 mmHg 76%
    01:00 -5°C° 0 mm 6 mps 746 mmHg 75%
    02:00 -5°C° 0 mm 6 mps 747 mmHg 75%
    03:00 -7°C° 0.1 mm 7 mps 747 mmHg 74%
    04:00 -7°C° 0.1 mm 7 mps 748 mmHg 73%
    05:00 -7°C° 0.1 mm 7 mps 749 mmHg 72%
    06:00 -8°C° 0 mm 7 mps 749 mmHg 70%
    07:00 -8°C° 0 mm 7 mps 750 mmHg 69%
    08:00 -9°C° 0 mm 6 mps 751 mmHg 68%
    09:00 -8°C° 0 mm 6 mps 752 mmHg 67%
    10:00 -8°C° 0 mm 6 mps 752 mmHg 66%
    11:00 -8°C° 0 mm 6 mps 753 mmHg 65%
    12:00 -8°C° 0 mm 6 mps 754 mmHg 64%
    13:00 -7°C° 0 mm 5 mps 754 mmHg 63%
    14:00 -7°C° 0 mm 5 mps 755 mmHg 62%
    15:00 -7°C° 0 mm 5 mps 756 mmHg 63%
    16:00 -7°C° 0 mm 5 mps 756 mmHg 64%
    17:00 -8°C° 0 mm 5 mps 757 mmHg 65%
    18:00 -8°C° 0 mm 5 mps 758 mmHg 66%
    19:00 -9°C° 0 mm 4 mps 759 mmHg 66%
    20:00 -9°C° 0 mm 4 mps 760 mmHg 67%
    21:00 -9°C° 0 mm 4 mps 761 mmHg 68%
    22:00 -10°C° 0 mm 4 mps 761 mmHg 69%
    23:00 -10°C° 0 mm 4 mps 762 mmHg 70%

    22 February, Friday

    Time Temperature Precipitation Wind Pressure Humidity
    00:00 -9°C° 0 mm 3 mps 763 mmHg 72%
    01:00 -10°C° 0 mm 3 mps 764 mmHg 74%
    02:00 -10°C° 0 mm 3 mps 765 mmHg 76%
    03:00 -10°C° 0 mm 3 mps 765 mmHg 75%
    04:00 -10°C° 0 mm 3 mps 766 mmHg 75%
    05:00 -10°C° 0 mm 3 mps 766 mmHg 75%
    06:00 -10°C° 0 mm 3 mps 767 mmHg 73%
    07:00 -11°C° 0 mm 4 mps 767 mmHg 71%
    08:00 -11°C° 0 mm 4 mps 768 mmHg 70%
    09:00 -10°C° 0 mm 4 mps 768 mmHg 64%
    10:00 -8°C° 0 mm 5 mps 769 mmHg 59%
    11:00 -7°C° 0 mm 5 mps 769 mmHg 53%
    12:00 -7°C° 0 mm 5 mps 769 mmHg 52%
    13:00 -6°C° 0 mm 5 mps 770 mmHg 51%
    14:00 -6°C° 0 mm 5 mps 770 mmHg 50%
    15:00 -6°C° 0 mm 5 mps 770 mmHg 54%
    16:00 -7°C° 0 mm 4 mps 770 mmHg 58%
    17:00 -7°C° 0 mm 4 mps 770 mmHg 61%
    18:00 -7°C° 0 mm 3 mps 771 mmHg 65%
    19:00 -7°C° 0 mm 3 mps 771 mmHg 68%
    20:00 -8°C° 0 mm 3 mps 771 mmHg 72%
    21:00 -7°C° 0 mm 2 mps 771 mmHg 75%
    22:00 -8°C° 0 mm 2 mps 771 mmHg 77%
    23:00 -7°C° 0 mm 1 mps 771 mmHg 80%

    23 February, Saturday

    Time Temperature Precipitation Wind Pressure Humidity
    00:00 -7°C° 0 mm 1 mps 771 mmHg 80%
    01:00 -7°C° 0 mm 1 mps 771 mmHg 80%
    02:00 -7°C° 0 mm 1 mps 770 mmHg 79%
    03:00 -8°C° 0 mm 2 mps 770 mmHg 76%
    04:00 -7°C° 0 mm 2 mps 769 mmHg 72%
    05:00 -8°C° 0 mm 3 mps 768 mmHg 69%
    06:00 -8°C° 0.4 mm 3 mps 768 mmHg 76%
    07:00 -8°C° 0.4 mm 3 mps 767 mmHg 84%
    08:00 -8°C° 0.4 mm 3 mps 766 mmHg 92%
    09:00 -9°C° 0.2 mm 4 mps 765 mmHg 90%
    10:00 -8°C° 0.2 mm 4 mps 764 mmHg 88%
    11:00 -8°C° 0.2 mm 4 mps 764 mmHg 86%
    12:00 -7°C° 0.1 mm 4 mps 763 mmHg 86%
    13:00 -7°C° 0.1 mm 4 mps 763 mmHg 86%
    14:00 -5°C° 0.1 mm 4 mps 762 mmHg 86%
    15:00 -5°C° 0.1 mm 3 mps 762 mmHg 89%
    16:00 -3°C° 0.1 mm 2 mps 762 mmHg 91%
    17:00 -3°C° 0.1 mm 2 mps 762 mmHg 93%
    18:00 -2°C° 0 mm 2 mps 762 mmHg 94%
    19:00 -2°C° 0 mm 2 mps 762 mmHg 95%
    20:00 0°C° 0 mm 1 mps 762 mmHg 97%
    21:00 +1°C° 0 mm 1 mps 762 mmHg 97%
    22:00 -1°C° 0 mm 2 mps 762 mmHg 97%
    23:00 -1°C° 0 mm 2 mps 762 mmHg 97%
    Show more